[[{"header":{"parameterUnit":"m.s-1","parameterCategory":1,"la1":30.2991,"la2":30.254,"lo1":-89.0895,"lo2":-89.0444,"dy":0.0017,"dx":0.0017,"nx":28,"ny":28,"refTime":"2024-09-27T03:00:00:Z","depth":0,"parameterNumber":2,"parameterNumberName":"U-component_of_WINDS"},"data":[0,0,0,0,0,0,0,0,0,0,0,0,0,0,0,0,0,0,0,0,0,0,0,0,0,0,0,0,0,0,0,0,0,0,0,0,0,0,0,0,0,0,0,0,0,0,0,0,0,0,0,0,0,0,0,0,0,0,4.6988,4.6989,0,4.7069,4.707,4.707,4.7064,4.7063,4.7062,4.7061,4.7145,4.7148,4.7151,0,0,0,0,0,0,0,0,0,0,0,0,0,4.6832,4.6835,4.6988,4.6989,4.699,4.7068,4.707,4.7071,4.7065,4.7063,4.7062,4.706,4.7144,4.7148,4.7152,0,0,0,0,0,0,0,0,0,0,0,0,0,4.6905,4.6836,4.6988,4.6997,4.6998,4.7068,4.707,4.7071,4.7065,4.7063,4.7061,4.706,4.7142,4.7147,4.7152,4.722,0,0,4.7168,4.717,0,0,0,0,0,0,0,0,4.6901,4.6911,4.6994,4.6996,4.6998,4.7055,4.7045,4.7121,4.7065,4.704,4.7061,4.7059,4.7116,4.7123,4.7143,4.7224,4.7227,4.7168,4.7171,4.7173,4.7175,0,0,0,0,0,0,0,4.6896,4.6907,4.702,4.6996,4.6998,4.6997,4.7006,4.706,4.7087,4.7042,4.7041,4.7051,4.7117,4.7138,4.7144,4.7228,4.7168,4.7172,4.7176,4.7178,4.737,4.7372,0,0,0,0,0,0,4.6888,4.6903,4.7017,4.7022,4.6944,4.7002,4.7011,4.7038,4.7087,4.7092,4.7052,4.705,4.713,4.7139,4.7147,4.723,4.7173,4.7178,4.7181,4.7368,4.7371,4.7373,0,0,0,0,0,0,4.6885,4.6899,4.7014,4.6963,4.6977,4.7006,4.7037,4.7041,4.7061,4.7095,4.71,4.7068,4.7129,4.714,4.7202,4.7233,4.718,4.7185,4.7366,4.7369,4.7372,4.7395,0,0,0,0,0,0,4.688,4.6897,4.6922,4.6963,4.698,4.7066,4.7039,4.7044,4.707,4.7068,4.7111,4.7116,4.7128,4.7194,4.7207,4.7239,4.7189,4.7363,4.7367,4.7371,4.7391,4.7398,4.7404,0,0,0,0,0,4.6875,4.6926,4.6924,4.6938,4.7012,4.7068,4.7078,4.709,4.7072,4.7098,4.712,4.7115,4.7228,4.7201,4.7215,4.7248,4.7361,4.7366,4.7371,4.7389,4.7397,4.7404,0,0,0,0,0,0,4.6888,4.6931,4.6929,4.6995,4.7028,4.7067,4.71,4.7099,4.7138,4.7134,4.7149,4.7159,4.7221,4.7241,4.721,4.7317,4.7292,4.73,4.7301,4.7309,4.7316,4.7309,4.7193,0,0,0,0,0,4.6898,4.694,4.6976,4.703,4.7047,4.7071,4.7096,4.7102,4.7137,4.7151,4.7178,4.7212,4.7256,4.7284,4.7326,4.7395,4.7405,4.7425,4.7432,4.7437,4.7443,4.7482,4.7492,4.7389,4.7389,4.7388,0,0,4.692,4.6949,4.6974,4.7033,4.706,4.7103,4.7082,4.7129,4.7161,4.7159,4.7218,4.7239,4.7279,4.7345,4.7375,4.7364,4.7474,4.7443,4.7447,4.745,4.7488,4.7498,4.7507,4.7392,4.7391,4.7391,0,0,4.6981,4.7008,4.7056,4.7083,4.7124,4.714,4.7151,4.7191,4.7205,4.7265,4.7264,4.7304,4.7378,4.7407,4.7431,4.7507,4.7504,4.752,4.7553,4.7591,4.7599,4.7607,4.7634,4.7643,4.7527,4.7527,4.7527,0,4.7003,4.7068,4.7081,4.7128,4.7155,4.7155,4.7204,4.7231,4.7283,4.7301,4.7288,4.7382,4.7409,4.7482,4.7501,4.752,4.7535,4.7514,4.7597,4.7605,4.7612,4.7637,4.7648,4.7528,4.7528,4.7528,4.7528,0,4.7093,4.7138,4.7173,4.7223,4.7254,4.7302,4.7323,4.7353,4.7358,4.7376,4.7438,4.7471,4.7519,4.7538,4.7543,4.7612,4.7604,4.7594,4.7569,4.7623,4.7647,4.7657,4.7531,4.753,4.753,4.7529,0,0,4.7163,4.7221,4.7233,4.7257,4.7303,4.7338,4.7387,4.7435,4.746,4.7497,4.7539,4.7603,4.7594,4.7622,4.7631,4.7665,4.7723,4.7651,4.7652,4.7663,4.7802,4.7808,4.7819,4.7722,4.7724,4.7725,4.7798,0,4.7229,4.7314,4.7329,4.7404,4.7447,4.7449,4.7492,4.7525,4.7544,4.7584,4.7605,4.765,4.7635,4.7652,4.7685,4.7709,4.7751,4.7704,4.7761,4.7763,4.775,4.7832,4.7839,4.7906,4.7808,4.781,4.7811,0,4.7316,4.7355,4.7435,4.7477,4.7495,4.7533,4.7579,4.7616,4.7655,4.7666,4.7698,4.7704,4.7756,4.7731,4.7804,4.7771,4.7796,4.7812,4.7815,4.7819,4.7789,4.7839,4.7927,4.7937,4.7826,4.7825,4.7824,0,4.7358,4.7432,4.7489,4.7509,4.7559,4.7586,4.7608,4.7645,4.7673,4.7714,4.7732,4.7778,4.7804,4.784,4.7858,4.7838,4.793,4.7906,4.7942,4.7941,4.796,4.7958,4.8053,4.7977,4.7977,4.7977,4.7977,0,4.743,4.7478,4.7509,4.7544,4.7599,4.7616,4.7671,4.7692,4.7726,4.7766,4.7772,4.7809,4.7832,4.7874,4.7889,4.7947,4.7959,4.797,4.7973,4.7969,4.7967,4.7984,4.798,4.798,4.7979,4.7979,4.7978,0,4.7485,4.7508,4.757,4.7613,4.7625,4.7664,4.7701,4.7736,4.7755,4.7806,4.7819,4.785,4.79,4.7922,4.7984,4.7994,4.806,4.8061,4.8047,4.8048,4.8082,4.8078,4.819,4.8206,4.8121,4.8122,4.8122,0,4.7529,4.7566,4.7613,4.7641,4.7663,4.7707,4.7736,4.7755,4.7786,4.7834,4.7863,4.7913,4.7953,4.8033,4.8061,4.8109,4.811,4.8146,4.8117,4.8112,4.811,4.8107,4.8111,4.8151,4.8152,4.8152,4.8153,0,4.7603,4.7613,4.7654,4.77,4.7734,4.7772,4.7808,4.783,4.7855,4.7889,4.794,4.7972,4.8035,4.8084,4.8134,4.8158,4.816,4.8162,4.8173,4.8168,4.8158,4.8164,4.806,4.8159,4.8158,4.8158,4.8158,4.8157,4.7654,4.7688,4.7726,4.7773,4.7802,4.7837,4.7872,4.7896,4.7938,4.7991,4.8,4.8054,4.8094,4.8161,4.8187,4.823,4.8222,4.8237,4.8241,4.8244,4.8246,4.8153,4.824,4.824,4.8239,4.8239,4.8239,0,4.7728,4.7754,4.7796,4.7847,4.7884,4.7883,4.7924,4.7955,4.8002,4.8039,4.8079,4.8138,4.8187,4.822,4.827,4.8298,4.8301,4.8311,4.8308,4.8314,4.8251,4.8237,4.8308,4.8308,4.8308,4.8308,4.8308,4.8308,4.7771,4.7828,4.7843,4.7916,4.7941,4.7994,4.8017,4.8049,4.8079,4.8144,4.8185,4.8206,4.8242,4.8295,4.834,4.8349,4.8366,4.8377,4.8385,4.8325,4.8318,4.8311,4.8298,4.8381,4.8381,4.8444,4.8445,4.8445]},{"header":{"parameterUnit":"m.s-1","parameterCategory":1,"la1":30.2991,"la2":30.254,"lo1":-89.0895,"lo2":-89.0444,"dy":0.0017,"dx":0.0017,"nx":28,"ny":28,"refTime":"2024-09-27T03:00:00:Z","depth":0,"parameterNumber":3,"parameterNumberName":"V-component_of_WINDS"},"data":[0,0,0,0,0,0,0,0,0,0,0,0,0,0,0,0,0,0,0,0,0,0,0,0,0,0,0,0,0,0,0,0,0,0,0,0,0,0,0,0,0,0,0,0,0,0,0,0,0,0,0,0,0,0,0,0,0,0,3.8866,3.8867,0,3.9023,3.9025,3.9026,3.9082,3.9081,3.9081,3.908,3.924,3.9245,3.925,0,0,0,0,0,0,0,0,0,0,0,0,0,3.8613,3.8617,3.8865,3.8867,3.8869,3.9022,3.9025,3.9027,3.9082,3.9081,3.9081,3.908,3.9239,3.9244,3.925,0,0,0,0,0,0,0,0,0,0,0,0,0,3.8741,3.8618,3.8865,3.8915,3.8922,3.9022,3.9025,3.9027,3.9082,3.9081,3.9081,3.908,3.9237,3.9244,3.9251,3.9312,0,0,3.9273,3.9276,0,0,0,0,0,0,0,0,3.8734,3.8751,3.8906,3.8912,3.8919,3.9032,3.8994,3.9123,3.9082,3.9021,3.908,3.9079,3.9172,3.9184,3.9215,3.932,3.9327,3.9273,3.9278,3.9281,3.9283,0,0,0,0,0,0,0,3.8725,3.8744,3.8928,3.8908,3.8916,3.893,3.8947,3.9019,3.9099,3.9026,3.9031,3.9049,3.9175,3.9208,3.922,3.9329,3.9273,3.928,3.9284,3.9287,3.9494,3.9495,0,0,0,0,0,0,3.8708,3.8736,3.8923,3.8932,3.8823,3.8935,3.8955,3.8997,3.9099,3.9113,3.9049,3.9051,3.9196,3.9211,3.9225,3.9306,3.9281,3.9288,3.9292,3.9493,3.9494,3.9496,0,0,0,0,0,0,3.8702,3.8724,3.8916,3.8836,3.8861,3.8941,3.8987,3.9,3.9034,3.9116,3.913,3.9069,3.9196,3.9215,3.9291,3.9312,3.9291,3.9297,3.9491,3.9493,3.9495,3.9466,0,0,0,0,0,0,3.8695,3.8721,3.8746,3.8836,3.8865,3.8979,3.8988,3.9004,3.9046,3.9049,3.9138,3.9152,3.9197,3.928,3.9298,3.9321,3.9303,3.949,3.9492,3.9494,3.9465,3.9466,3.9467,0,0,0,0,0,3.8685,3.873,3.8747,3.8769,3.8897,3.898,3.8997,3.9049,3.9047,3.9073,3.9126,3.9149,3.9306,3.9287,3.9308,3.9334,3.9489,3.9492,3.9494,3.9465,3.9466,3.9467,0,0,0,0,0,0,3.864,3.8743,3.8762,3.8838,3.89,3.8989,3.9023,3.9048,3.9111,3.9112,3.9173,3.9192,3.9264,3.9306,3.9283,3.94,3.9399,3.9406,3.9369,3.9371,3.9372,3.9361,3.9309,0,0,0,0,0,3.8639,3.8698,3.8785,3.8843,3.8873,3.8942,3.898,3.9015,3.9081,3.9108,3.9167,3.923,3.9294,3.9335,3.9398,3.9471,3.9492,3.95,3.9501,3.9501,3.9507,3.955,3.9555,3.9504,3.9504,3.9504,0,0,3.8636,3.87,3.8734,3.8835,3.8888,3.8948,3.8964,3.9026,3.9072,3.9117,3.9193,3.9238,3.9313,3.9388,3.9424,3.9426,3.9525,3.9504,3.9504,3.951,3.9553,3.9558,3.9562,3.9506,3.9506,3.9506,0,0,3.8664,3.8717,3.8773,3.8825,3.8904,3.895,3.8964,3.905,3.9082,3.9159,3.9195,3.9249,3.9358,3.9411,3.9452,3.95,3.9525,3.9519,3.9525,3.9567,3.9571,3.9574,3.9593,3.9599,3.9524,3.9524,3.9524,0,3.8651,3.8743,3.8798,3.8859,3.8903,3.8948,3.9005,3.9053,3.9148,3.9178,3.9179,3.9317,3.9371,3.946,3.9472,3.9503,3.952,3.951,3.9566,3.957,3.9574,3.9593,3.96,3.9523,3.9523,3.9523,3.9523,0,3.8724,3.8788,3.8823,3.8915,3.8963,3.9022,3.9085,3.9127,3.9158,3.9204,3.9282,3.9348,3.9427,3.945,3.948,3.9544,3.9543,3.9554,3.9554,3.9577,3.9596,3.9603,3.9522,3.9522,3.9522,3.9523,0,0,3.8727,3.885,3.8862,3.8905,3.8996,3.9046,3.9107,3.9185,3.922,3.9285,3.9338,3.943,3.9441,3.9487,3.9524,3.956,3.9597,3.9567,3.957,3.9572,3.9673,3.9665,3.9672,3.9613,3.9615,3.9616,3.9667,0,3.8767,3.8878,3.893,3.9019,3.9078,3.9123,3.9176,3.9238,3.9283,3.934,3.939,3.9454,3.9463,3.9492,3.953,3.9584,3.9618,3.9581,3.9664,3.9666,3.9645,3.9682,3.9673,3.9719,3.9675,3.9676,3.9677,0,3.8828,3.8894,3.8989,3.9075,3.9102,3.9149,3.9225,3.9279,3.9351,3.9381,3.9433,3.9469,3.9535,3.9531,3.9624,3.9598,3.9635,3.9666,3.9669,3.968,3.9674,3.9695,3.9734,3.9741,3.9689,3.9688,3.9687,0,3.8822,3.8934,3.9006,3.9042,3.9143,3.9176,3.9219,3.929,3.9334,3.94,3.943,3.9502,3.9542,3.9598,3.9652,3.9644,3.9741,3.974,3.9769,3.9767,3.9788,3.9786,3.9835,3.9809,3.9809,3.9809,3.9809,0,3.8862,3.8919,3.9005,3.9049,3.9115,3.9173,3.9236,3.9283,3.9346,3.9401,3.9443,3.9493,3.9561,3.962,3.9663,3.9735,3.9752,3.9779,3.979,3.9776,3.9773,3.9802,3.9801,3.9811,3.9811,3.981,3.981,0,3.8866,3.8927,3.9008,3.9098,3.9122,3.9166,3.9244,3.9289,3.9336,3.9404,3.9424,3.9498,3.957,3.963,3.9724,3.9753,3.9828,3.984,3.9804,3.981,3.9835,3.9833,3.9906,3.9919,3.9883,3.9883,3.9883,0,3.8888,3.8933,3.9029,3.9069,3.9112,3.9176,3.9221,3.9281,3.9326,3.9412,3.9447,3.9522,3.9586,3.9699,3.9761,3.9834,3.9849,3.987,3.986,3.9845,3.9851,3.9849,3.9854,3.987,3.9871,3.9871,3.9871,0,3.8922,3.895,3.9014,3.9089,3.9142,3.9204,3.9266,3.9296,3.9368,3.9417,3.9492,3.9541,3.9638,3.9713,3.9792,3.9838,3.9867,3.9873,3.9884,3.9871,3.9849,3.9863,3.9807,3.9871,3.9871,3.9871,3.9871,3.9871,3.8937,3.8979,3.9054,3.9124,3.9178,3.9236,3.9283,3.9337,3.94,3.9485,3.9516,3.9593,3.9665,3.9775,3.9821,3.9882,3.9886,3.9901,3.9905,3.9908,3.9907,3.9838,3.9897,3.9897,3.9897,3.9897,3.9897,0,3.8973,3.9024,3.9088,3.9175,3.9231,3.9254,3.9325,3.937,3.9437,3.9502,3.9564,3.9651,3.9724,3.9792,3.9869,3.9905,3.9921,3.9923,3.9922,3.9932,3.9899,3.9883,3.991,3.991,3.991,3.991,3.991,3.991,3.8999,3.9073,3.911,3.9212,3.9262,3.9338,3.9377,3.9431,3.9484,3.9579,3.964,3.9684,3.9751,3.9834,3.9902,3.9921,3.9947,3.9947,3.9969,3.9936,3.9934,3.9933,3.9918,3.9952,3.9952,3.9998,3.9999,3.9999]}]]